Pittsfield, IL

2:54 AM CDT on September 30, 2016 (GMT -0500)
Pittsfield Penstone Municipal

Weather History for KPPQ - December, 2001

Change the Weather History Date:

Monday, December 31, 2001

  Actual Average (KUIN) Record (KUIN)
Temperature  
Mean Temperature 20 °F 27 °F  
Max Temperature 26 °F 35 °F 64 °F (1951)
Min Temperature 14 °F 19 °F -10 °F (1976)
Degree Days  
Heating Degree Days 45 38  
Month to date heating degree days 1091  
Since 1 July heating degree days 2191  
Cooling Degree Days 0 0  
Month to date cooling degree days 0  
Year to date cooling degree days 1094  
Moisture  
Dew Point 10 °F    
Average Humidity 70    
Maximum Humidity 93    
Minimum Humidity 47    
Precipitation  
Precipitation 0.00 in 0.06 in 1.42 in (2010)
Month to date precipitation 2.25  
Year to date precipitation 37.33  
Sea Level Pressure  
Sea Level Pressure 30.26 in    
Wind  
Wind Speed 5 mph (WSW)    
Max Wind Speed 13 mph    
Max Gust Speed 17 mph    
Visibility 10 miles    
Events Snow    
T = Trace of Precipitation, MM = Missing Value Source: NWS Daily Summary

Daily Weather History Graph

Daily Weather History Graph

Search for Another Location

Airport or City:

Trip Planner

Search our weather history database for the weather conditions in past years. The results will help you decide how hot, cold, wet, or windy it might be!

Date:

Astronomy

Dec. 31, 2001 Rise Set
Actual Time 7:23 AM CST 4:48 PM CST
Civil Twilight 6:53 AM CST 5:19 PM CST
Nautical Twilight 6:19 AM CST 5:52 PM CST
Astronomical Twilight 5:47 AM CST 6:25 PM CST
Moon 6:17 PM CST (12/31) 8:37 AM CST (12/31)
Length of Visible Light 10h 25m
Length of Day
9h 25m
Full, 98% of the Moon is Illuminated
Dec 31
Full
Jan 5
Last Quarter
Jan 13
New
Jan 21
First Quarter
Jan 28
Full

Hourly Weather History & Observations

Time (CST) Temp. Windchill Dew Point Humidity Pressure Visibility Wind Dir Wind Speed Gust Speed Precip Events Conditions
12:07 AM 17.6 °F 10.7 °F 12.2 °F 79% 30.27 in 10.0 mi WSW 4.6 mph - N/A   Clear
12:27 AM 17.6 °F 10.7 °F 12.2 °F 79% 30.27 in 10.0 mi WSW 4.6 mph - N/A   Clear
12:49 AM 17.6 °F 10.7 °F 12.2 °F 79% 30.28 in 10.0 mi WSW 4.6 mph - N/A   Clear
1:09 AM 17.6 °F 10.7 °F 12.2 °F 79% 30.29 in 10.0 mi WSW 4.6 mph - N/A   Mostly Cloudy
1:27 AM 17.6 °F 10.7 °F 12.2 °F 79% 30.29 in 10.0 mi WSW 4.6 mph - N/A   Mostly Cloudy
1:47 AM 17.6 °F 12.3 °F 10.4 °F 73% 30.29 in 10.0 mi WSW 3.5 mph - N/A   Overcast
2:07 AM 17.6 °F 12.3 °F 10.4 °F 73% 30.29 in 10.0 mi WSW 3.5 mph - N/A   Overcast
2:27 AM 17.6 °F - 10.4 °F 73% 30.29 in 10.0 mi Calm Calm - N/A   Mostly Cloudy
2:47 AM 17.6 °F - 12.2 °F 79% 30.29 in 10.0 mi Calm Calm - N/A   Mostly Cloudy
3:09 AM 17.6 °F 12.3 °F 12.2 °F 79% 30.29 in 10.0 mi WSW 3.5 mph - N/A   Overcast
3:27 AM 17.6 °F 12.3 °F 12.2 °F 79% 30.28 in 10.0 mi WSW 3.5 mph - N/A   Overcast
3:47 AM 17.6 °F 12.3 °F 12.2 °F 79% 30.28 in 10.0 mi WSW 3.5 mph - N/A   Scattered Clouds
4:07 AM 17.6 °F 12.3 °F 12.2 °F 79% 30.27 in 10.0 mi WSW 3.5 mph - N/A   Clear
4:27 AM 15.8 °F - 10.4 °F 79% 30.27 in 10.0 mi Calm Calm - N/A   Scattered Clouds
4:47 AM 14.0 °F 6.5 °F 10.4 °F 86% 30.27 in 10.0 mi WSW 4.6 mph - N/A   Mostly Cloudy
5:09 AM 15.8 °F 7.2 °F 12.2 °F 86% 30.27 in 10.0 mi WSW 5.8 mph - N/A Snow Light Snow
5:27 AM 14.0 °F 5.1 °F 10.4 °F 86% 30.27 in 7.0 mi WSW 5.8 mph - N/A   Mostly Cloudy
5:49 AM 14.0 °F 5.1 °F 10.4 °F 86% 30.27 in 7.0 mi WSW 5.8 mph - N/A Snow Light Snow
6:07 AM 14.0 °F 6.5 °F 10.4 °F 86% 30.27 in 7.0 mi WSW 4.6 mph - N/A Snow Light Snow
6:27 AM 14.0 °F 6.5 °F 10.4 °F 86% 30.27 in 10.0 mi WSW 4.6 mph - N/A   Scattered Clouds
6:47 AM 14.0 °F 5.1 °F 12.2 °F 93% 30.28 in 10.0 mi WSW 5.8 mph - N/A   Scattered Clouds
7:08 AM 14.0 °F 6.5 °F 10.4 °F 86% 30.28 in 7.0 mi WSW 4.6 mph - N/A Snow Light Snow
7:27 AM 14.0 °F 6.5 °F 10.4 °F 86% 30.28 in 7.0 mi WSW 4.6 mph - N/A   Mostly Cloudy
7:47 AM 14.0 °F 6.5 °F 10.4 °F 86% 30.29 in 10.0 mi WSW 4.6 mph - N/A   Scattered Clouds
8:07 AM 14.0 °F 6.5 °F 10.4 °F 86% 30.30 in 10.0 mi WSW 4.6 mph - N/A   Clear
8:27 AM 14.0 °F 3.9 °F 10.4 °F 86% 30.30 in 10.0 mi WSW 6.9 mph - N/A   Clear
8:47 AM 15.8 °F 5.1 °F 10.4 °F 79% 30.30 in 10.0 mi WSW 8.1 mph - N/A   Clear
9:07 AM 17.6 °F 5.7 °F 12.2 °F 79% 30.30 in 10.0 mi WSW 10.4 mph - N/A   Clear
9:27 AM 17.6 °F 7.3 °F 12.2 °F 79% 30.31 in 10.0 mi WSW 8.1 mph - N/A   Clear
9:47 AM 17.6 °F 5.7 °F 10.4 °F 73% 30.30 in 10.0 mi WSW 10.4 mph - N/A   Scattered Clouds
10:07 AM 17.6 °F 8.2 °F 12.2 °F 79% 30.30 in 10.0 mi WSW 6.9 mph - N/A   Scattered Clouds
10:28 AM 19.4 °F 8.6 °F 12.2 °F 74% 30.29 in 10.0 mi WSW 9.2 mph - N/A   Scattered Clouds
10:47 AM 19.4 °F 7.2 °F 10.4 °F 68% 30.29 in 10.0 mi WSW 11.5 mph 17.3 mph N/A   Clear
11:07 AM 19.4 °F 8.6 °F 10.4 °F 68% 30.27 in 10.0 mi WSW 9.2 mph - N/A   Clear
11:27 AM 19.4 °F 9.5 °F 10.4 °F 68% 30.26 in 10.0 mi WSW 8.1 mph - N/A   Clear
11:47 AM 21.2 °F 10.1 °F 10.4 °F 63% 30.26 in 10.0 mi WSW 10.4 mph - N/A   Clear
12:07 PM 21.2 °F 10.1 °F 10.4 °F 63% 30.25 in 10.0 mi WSW 10.4 mph - N/A   Clear
12:27 PM 21.2 °F 8.9 °F 10.4 °F 63% 30.24 in 10.0 mi WSW 12.7 mph - N/A   Clear
12:47 PM 23.0 °F 13.9 °F 10.4 °F 59% 30.24 in 10.0 mi WSW 8.1 mph - N/A   Clear
1:09 PM 24.8 °F 14.6 °F 10.4 °F 54% 30.23 in 10.0 mi WSW 10.4 mph - N/A   Clear
1:27 PM 24.8 °F 15.3 °F 10.4 °F 54% 30.23 in 10.0 mi WSW 9.2 mph 16.1 mph N/A   Clear
1:47 PM 24.8 °F 15.3 °F 8.6 °F 50% 30.22 in 10.0 mi WSW 9.2 mph - N/A   Clear
2:07 PM 24.8 °F 15.3 °F 8.6 °F 50% 30.22 in 10.0 mi WSW 9.2 mph - N/A   Clear
2:27 PM 26.6 °F 18.2 °F 8.6 °F 47% 30.22 in 10.0 mi WSW 8.1 mph - N/A   Clear
2:47 PM 26.6 °F 17.5 °F 10.4 °F 51% 30.23 in 10.0 mi WSW 9.2 mph - N/A   Clear
3:07 PM 26.6 °F 20.0 °F 8.6 °F 47% 30.22 in 10.0 mi WSW 5.8 mph - N/A   Clear
3:27 PM 26.6 °F 18.2 °F 8.6 °F 47% 30.22 in 10.0 mi WSW 8.1 mph - N/A   Clear
3:47 PM 26.6 °F 20.0 °F 8.6 °F 47% 30.23 in 10.0 mi WSW 5.8 mph - N/A   Clear
4:07 PM 26.6 °F 19.1 °F 8.6 °F 47% 30.23 in 10.0 mi WSW 6.9 mph - N/A   Clear
4:27 PM 26.6 °F 20.0 °F 8.6 °F 47% 30.23 in 10.0 mi WSW 5.8 mph - N/A   Clear
4:47 PM 24.8 °F 19.1 °F 8.6 °F 50% 30.24 in 10.0 mi WSW 4.6 mph - N/A   Clear
5:09 PM 23.0 °F - 6.8 °F 50% 30.24 in 10.0 mi Calm Calm - N/A   Clear
5:27 PM 21.2 °F - 6.8 °F 54% 30.24 in 10.0 mi Calm Calm - N/A   Clear
5:47 PM 19.4 °F - 6.8 °F 58% 30.24 in 10.0 mi Calm Calm - N/A   Clear
6:07 PM 19.4 °F - 6.8 °F 58% 30.24 in 10.0 mi Calm Calm - N/A   Clear
6:27 PM 19.4 °F 14.3 °F 6.8 °F 58% 30.25 in 10.0 mi WSW 3.5 mph - N/A   Clear
6:47 PM 19.4 °F 14.3 °F 8.6 °F 63% 30.25 in 10.0 mi WSW 3.5 mph - N/A   Clear
7:07 PM 19.4 °F 14.3 °F 8.6 °F 63% 30.26 in 10.0 mi WSW 3.5 mph - N/A   Clear
7:30 PM 19.4 °F - 8.6 °F 63% 30.26 in 10.0 mi Calm Calm - N/A   Clear
7:48 PM 17.6 °F 12.3 °F 8.6 °F 68% 30.26 in 10.0 mi WSW 3.5 mph - N/A   Clear
8:07 PM 17.6 °F 10.7 °F 8.6 °F 68% 30.25 in 10.0 mi WSW 4.6 mph - N/A   Clear
8:47 PM 15.8 °F - 8.6 °F 73% 30.25 in 10.0 mi Calm Calm - N/A   Clear
9:09 PM 15.8 °F 10.2 °F 8.6 °F 73% 30.25 in 10.0 mi WSW 3.5 mph - N/A   Clear
9:27 PM 15.8 °F 10.2 °F 8.6 °F 73% 30.25 in 10.0 mi WSW 3.5 mph - N/A   Clear
9:47 PM 17.6 °F 12.3 °F 6.8 °F 63% 30.25 in 10.0 mi WSW 3.5 mph - N/A   Clear
10:07 PM 14.0 °F 8.2 °F 6.8 °F 73% 30.25 in 10.0 mi WSW 3.5 mph - N/A   Clear
10:27 PM 14.0 °F - 6.8 °F 73% 30.25 in 10.0 mi Calm Calm - N/A   Clear
10:47 PM 14.0 °F 8.2 °F 6.8 °F 73% 30.26 in 10.0 mi WSW 3.5 mph - N/A   Clear
11:09 PM 15.8 °F 10.2 °F 6.8 °F 68% 30.26 in 10.0 mi WSW 3.5 mph - N/A   Clear
11:28 PM 15.8 °F 10.2 °F 6.8 °F 68% 30.27 in 10.0 mi WSW 3.5 mph - N/A   Clear
11:47 PM 15.8 °F 8.6 °F 6.8 °F 68% 30.26 in 10.0 mi WSW 4.6 mph - N/A   Clear